Regional Weather Roundup
Issued by NWS

Home | Current Version | Previous Version | Text Only | Print | Product List | Glossary Off
Versions: 1 2 3 4 5 6 7 8 9 10 11 12 13 14 15 16 17 18 19 20 21 22 23 24 25 26 27 28 29 30 31 32 33 34 35 36 37 38 39 40 41 42 43 44 45 46 47 48 49 50

000
ASUS43 KBIS 242102
RWRND

NORTH DAKOTA REGIONAL WEATHER ROUNDUP
NATIONAL WEATHER SERVICE BISMARCK ND
400 PM CDT MON JUL 24 2017

NOTE: "FAIR" INDICATES FEW OR NO CLOUDS BELOW 12,000 FEET WITH NO
SIGNIFICANT WEATHER AND/OR OBSTRUCTIONS TO VISIBILITY.


NDZ001>003-009>011-017-242200-
NORTHWEST NORTH DAKOTA

CITY           SKY/WX    TMP DP  RH WIND       PRES   REMARKS
WILLISTON      FAIR      95  52  23 NW20G25   29.76R HX  92
MINOT          FAIR      97  55  24 S20G26    29.73F HX  95
MINOT AFB      FAIR      95  56  26 S16G25    29.71F HX  94
$$

NDZ018>021-031>035-040>046-242200-
SOUTHWEST NORTH DAKOTA

CITY           SKY/WX    TMP DP  RH WIND       PRES   REMARKS
BISMARCK       FAIR      90  64  42 S15       29.82S HX  91
DICKINSON      FAIR      96  55  25 S12G18    29.77F HX  94
GARRISON         N/A     92  62  36 S17       29.75F HX  92
HETTINGER ARPT FAIR      94  56  27 S8        29.82F HX  92
$$

NDZ004>008-012>016-024-026-027-054-242200-
NORTHEAST NORTH DAKOTA

CITY           SKY/WX    TMP DP  RH WIND       PRES   REMARKS
GRAND FORKS    PTSUNNY   83  65  54 S22G28    29.89S
GRND FRKS AFB  FAIR      80  64  57 S20G25    29.89F
DEVILS LAKE    FAIR      82  64  54 S20       29.85F
$$

NDZ022-023-025-028>030-036>039-047>053-242200-
SOUTHEAST NORTH DAKOTA

CITY           SKY/WX    TMP DP  RH WIND       PRES   REMARKS
FARGO          FAIR      79  63  57 S16G25    29.91F
JAMESTOWN      FAIR      79  63  57 S14       29.88R
$$





USA.gov is the U.S. government's official web portal to all federal, state and local government web resources and services.